Location: Unspecified
(51.0950°N, 12.9690°E)
Time: 22:50:33
(UTC+00:00)

Cosmos 1953 Rocket - Pass Details

Date: 28 October 2021
Orbit: 603 x 635 km, 82.5° (Epoch: 01 December)

Event Time Altitude Azimuth Distance (km) Brightness Sun altitude
Rises 17:51:13 0° 350° (N) 2,945 7.2 -19.7°
Reaches altitude 10° 17:53:29 10° 352° (N) 2,030 6.3 -20.0°
Maximum altitude 17:58:00 78° 79° (E) 651 3.4 -20.7°
Enters shadow 18:00:33 25° 163° (SSE) 1,270 4.9 -21.1°
